Location: Unspecified
(42.9300°N, 71.1866°W)
Time: 06:23:31
(UTC-04:00)

Cosmos 2058 - Visible Passes

Search period start: 27 September 2016 00:00
Search period end: 07 October 2016 00:00
Orbit: 563 x 587 km, 82.5° (Epoch: 25 September)

Date Brightness Start Highest point End Pass type
(mag) Time Alt. Az. Time Alt. Az. Time Alt. Az.
27 Sep 4.5 20:38:18 10° N 20:40:13 25° NNE 20:40:13 25° NNE visible
28 Sep 4.2 20:41:47 10° N 20:44:02 30° N 20:44:02 30° N visible
29 Sep 4.0 20:45:19 10° N 20:47:53 37° N 20:47:53 37° N visible
30 Sep 3.9 20:48:54 10° NNW 20:51:47 43° NNW 20:51:47 43° NNW visible
01 Oct 4.7 19:17:15 10° NE 19:19:16 13° ENE 19:19:29 13° ENE visible
01 Oct 3.9 20:52:32 10° NNW 20:55:45 44° NW 20:55:45 44° NW visible
02 Oct 4.4 19:20:11 10° NNE 19:22:57 17° ENE 19:23:31 17° E visible
02 Oct 4.3 20:56:14 10° NNW 20:59:48 37° W 20:59:48 37° W visible
03 Oct 4.1 19:23:20 10° NNE 19:26:37 22° ENE 19:27:40 20° E visible
03 Oct 4.7 21:00:01 10° NNW 21:03:34 28° W 21:03:56 28° W visible
04 Oct 3.7 19:26:38 10° NNE 19:30:16 29° ENE 19:31:55 22° ESE visible
04 Oct 5.2 21:03:52 10° NW 21:07:03 22° W 21:08:13 19° WSW visible
05 Oct 3.3 19:30:01 10° N 19:33:53 38° ENE 19:36:22 19° SE visible
05 Oct 5.7 21:07:54 10° NW 21:10:30 16° W 21:12:41 12° WSW visible
06 Oct 3.0 19:33:26 10° N 19:37:30 52° E 19:41:05 13° SSE visible
06 Oct 6.0 21:12:13 10° WNW 21:13:56 12° W 21:15:40 10° WSW visible
